This is the latest recevied weather packets stored in our database for station/object SR3WXA. If no packets are shown the sender has not sent any weather packets the latest 10 day(s).
| Time | Temp. | Humidity | Pressure | Rain* | Wind** | Luminosity | Snow |
|---|---|---|---|---|---|---|---|
| 1777376209 | 11.67° C | 30% | 1027.3 hPa | 0 mm | - | 724 W/m² | - |
| 1777375909 | 11.67° C | 30% | 1027.3 hPa | 0 mm | - | 729 W/m² | - |
| 1777375411 | 11.67° C | 32% | 1027.4 hPa | 0 mm | - | 733 W/m² | - |
| 1777375147 | 11.11° C | 30% | 1027.5 hPa | 0 mm | - | 710 W/m² | - |
| 1777375111 | 11.11° C | 30% | 1027.5 hPa | 0 mm | - | 710 W/m² | - |
| 1777374811 | 11.67° C | 30% | 1027.5 hPa | 0 mm | - | 664 W/m² | - |
| 1777374511 | 11.67° C | 31% | 1027.5 hPa | 0 mm | - | 754 W/m² | - |
| 1777374211 | 11.67° C | 29% | 1027.5 hPa | 0 mm | - | 744 W/m² | - |
| 1777373966 | 11.67° C | 32% | 1027.5 hPa | 0 mm | - | 742 W/m² | - |
| 1777373911 | 11.67° C | 32% | 1027.5 hPa | 0 mm | - | 742 W/m² | - |
| 1777373611 | 11.67° C | 32% | 1027.5 hPa | 0 mm | - | 735 W/m² | - |
| 1777373349 | 11.67° C | 34% | 1027.5 hPa | 0 mm | - | 726 W/m² | - |
| 1777373311 | 11.67° C | 34% | 1027.5 hPa | 0 mm | - | 726 W/m² | - |
| 1777373011 | 11.11° C | 36% | 1027.5 hPa | 0 mm | - | 722 W/m² | - |
| 1777372711 | 11.11° C | 35% | 1027.5 hPa | 0 mm | - | 717 W/m² | - |
| 1777372262 | 11.11° C | 36% | 1027.7 hPa | 0 mm | - | 710 W/m² | - |
| 1777372225 | 11.11° C | 36% | 1027.7 hPa | 0 mm | - | 710 W/m² | - |
| 1777371925 | 11.11° C | 35% | 1027.7 hPa | 0 mm | - | 710 W/m² | - |
| 1777371658 | 11.67° C | 36% | 1027.6 hPa | 0 mm | - | 715 W/m² | - |
| 1777371625 | 11.67° C | 36% | 1027.6 hPa | 0 mm | - | 715 W/m² | - |
| 1777371367 | 11.11° C | 35% | 1027.7 hPa | 0 mm | - | 717 W/m² | - |
| 1777371325 | 11.11° C | 35% | 1027.7 hPa | 0 mm | - | 717 W/m² | - |
| 1777371025 | 11.11° C | 35% | 1027.7 hPa | 0 mm | - | 714 W/m² | - |
| 1777370725 | 11.11° C | 34% | 1027.7 hPa | 0 mm | - | 717 W/m² | - |
| 1777370425 | 11.11° C | 34% | 1027.8 hPa | 0 mm | - | 708 W/m² | - |
* Rain latest hour (hover to see other rain measurements)
** Current wind speed in m/s (hover to see current wind gust speed)